{"data":{"norad_id":56522,"epoch":"2026-09-20T04:25:58.268352Z","epoch_age_seconds":142002,"freshness":"FRESH","line1":"1 56522U 23065V   26263.18470218 -.00000178  00000+0  30604-5 0  9990","line2":"2 56522  43.0037 194.1949 0000956 266.8325  93.2418 15.27574476186345","mean_motion":15.27574476,"eccentricity":9.56e-5,"inclination_deg":43.0037,"raan_deg":194.1949,"arg_perigee_deg":266.8325,"mean_anomaly_deg":93.2418,"bstar":3.0604e-6,"rev_number":18634,"period_min":94.267089600154,"perigee_km":482.40970596066,"apogee_km":483.72156790484,"semimajor_km":6861.2026369327,"source":"CELESTRAK","updated_at":"2026-09-21T09:00:33.472850Z"}}